[[{"header":{"parameterUnit":"m.s-1","parameterCategory":1,"la1":30.2991,"la2":30.254,"lo1":-89.0895,"lo2":-89.0444,"dy":0.0017,"dx":0.0017,"nx":28,"ny":28,"refTime":"2025-12-04T09:00:00:Z","depth":0,"parameterNumber":2,"parameterNumberName":"U-component_of_WINDS"},"data":[0,0,0,0,0,0,0,0,0,0,0,0,0,0,0,0,0,0,0,0,0,0,0,0,0,0,0,0,0,0,0,0,0,0,0,0,0,0,0,0,0,0,0,0,0,0,0,0,0,0,0,0,0,0,0,0,0,0,-2.3094,-2.3095,0,-2.3218,-2.322,-2.3221,-2.317,-2.3167,-2.3164,-2.3161,-2.3293,-2.3299,-2.3306,0,0,0,0,0,0,0,0,0,0,0,0,0,-2.2815,-2.282,-2.3094,-2.3095,-2.3097,-2.3218,-2.322,-2.3222,-2.317,-2.3166,-2.3163,-2.3159,-2.3291,-2.3299,-2.3306,0,0,0,0,0,0,0,0,0,0,0,0,0,-2.2938,-2.2822,-2.3093,-2.3086,-2.3086,-2.3218,-2.322,-2.3222,-2.3171,-2.3166,-2.3162,-2.3158,-2.3289,-2.3298,-2.3307,-2.3456,0,0,-2.3336,-2.334,0,0,0,0,0,0,0,0,-2.2931,-2.2948,-2.3085,-2.3086,-2.3087,-2.3174,-2.317,-2.3301,-2.3172,-2.3139,-2.3161,-2.3155,-2.3257,-2.3269,-2.3303,-2.3462,-2.3467,-2.3337,-2.3343,-2.3347,-2.335,0,0,0,0,0,0,0,-2.2922,-2.2942,-2.3143,-2.3087,-2.3089,-2.3077,-2.309,-2.3195,-2.3222,-2.3141,-2.3138,-2.3153,-2.3257,-2.3294,-2.3305,-2.3469,-2.3337,-2.3345,-2.3351,-2.3355,-2.3758,-2.3763,0,0,0,0,0,0,-2.2913,-2.2936,-2.3139,-2.3147,-2.2996,-2.3086,-2.31,-2.3151,-2.3221,-2.3227,-2.3157,-2.315,-2.328,-2.3294,-2.331,-2.3489,-2.3347,-2.3356,-2.3361,-2.3753,-2.3759,-2.3764,0,0,0,0,0,0,-2.2907,-2.2932,-2.3134,-2.304,-2.3065,-2.3095,-2.3153,-2.3155,-2.3192,-2.3232,-2.3237,-2.3189,-2.3277,-2.3296,-2.342,-2.3493,-2.336,-2.3369,-2.3747,-2.3755,-2.3762,-2.3848,0,0,0,0,0,0,-2.29,-2.293,-2.2986,-2.3042,-2.307,-2.3241,-2.3157,-2.3161,-2.3208,-2.32,-2.3264,-2.327,-2.3275,-2.3406,-2.3429,-2.3504,-2.3376,-2.374,-2.375,-2.3759,-2.3839,-2.3858,-2.3874,0,0,0,0,0,-2.289,-2.3006,-2.2989,-2.3014,-2.314,-2.3245,-2.3262,-2.3263,-2.3214,-2.3271,-2.3297,-2.3268,-2.3481,-2.3419,-2.3445,-2.3523,-2.3736,-2.3748,-2.3758,-2.3831,-2.3854,-2.3873,0,0,0,0,0,0,-2.2959,-2.3013,-2.2995,-2.3132,-2.3184,-2.3236,-2.3308,-2.3288,-2.3356,-2.3347,-2.3347,-2.3362,-2.3489,-2.3518,-2.3448,-2.3671,-2.3601,-2.3618,-2.3647,-2.367,-2.3687,-2.3678,-2.3384,0,0,0,0,0,-2.299,-2.3069,-2.3113,-2.323,-2.3257,-2.3278,-2.3324,-2.332,-2.3375,-2.3397,-2.3432,-2.3488,-2.3567,-2.362,-2.3695,-2.3842,-2.3856,-2.3909,-2.3926,-2.3941,-2.3956,-2.4037,-2.4061,-2.3801,-2.3801,-2.3801,0,0,-2.3056,-2.3095,-2.3145,-2.3245,-2.3285,-2.3368,-2.3297,-2.3388,-2.3451,-2.3412,-2.353,-2.3558,-2.362,-2.3756,-2.3818,-2.3784,-2.403,-2.3955,-2.3966,-2.3974,-2.4051,-2.4076,-2.4098,-2.3809,-2.3808,-2.3806,0,0,-2.3218,-2.3255,-2.3357,-2.3398,-2.3459,-2.3472,-2.3497,-2.3552,-2.3568,-2.3687,-2.366,-2.3734,-2.3871,-2.3916,-2.3957,-2.4137,-2.4113,-2.4161,-2.4253,-2.4332,-2.4352,-2.4371,-2.4436,-2.4459,-2.4176,-2.4176,-2.4176,0,-2.3292,-2.3415,-2.3412,-2.3506,-2.3551,-2.3518,-2.3622,-2.3663,-2.3746,-2.3779,-2.3739,-2.391,-2.3949,-2.4096,-2.414,-2.4174,-2.4203,-2.4155,-2.4349,-2.4368,-2.4385,-2.4447,-2.4471,-2.4182,-2.4181,-2.418,-2.418,0,-2.3504,-2.359,-2.3666,-2.3745,-2.3799,-2.3897,-2.3911,-2.3966,-2.3958,-2.3976,-2.4097,-2.4143,-2.4227,-2.4262,-2.4255,-2.4408,-2.4385,-2.4348,-2.4278,-2.4415,-2.4474,-2.4497,-2.4189,-2.4187,-2.4186,-2.4184,0,0,-2.3715,-2.3791,-2.3819,-2.3855,-2.3919,-2.3987,-2.4084,-2.4165,-2.4213,-2.4271,-2.4354,-2.447,-2.4435,-2.4482,-2.448,-2.455,-2.469,-2.4504,-2.4505,-2.4538,-2.4863,-2.4892,-2.4919,-2.4674,-2.4679,-2.4682,-2.4858,0,-2.3883,-2.4052,-2.4053,-2.421,-2.429,-2.4259,-2.4344,-2.4394,-2.4413,-2.4485,-2.4507,-2.459,-2.4537,-2.4565,-2.4632,-2.4659,-2.4756,-2.4646,-2.4753,-2.4757,-2.474,-2.495,-2.498,-2.5144,-2.4881,-2.4885,-2.4887,0,-2.4102,-2.4166,-2.4331,-2.4384,-2.4418,-2.4494,-2.4568,-2.4637,-2.4693,-2.4702,-2.4754,-2.4742,-2.4843,-2.4768,-2.4908,-2.4833,-2.4877,-2.4897,-2.4903,-2.4915,-2.4831,-2.4968,-2.5196,-2.5221,-2.4923,-2.492,-2.4918,0,-2.4241,-2.4368,-2.4483,-2.4515,-2.458,-2.4634,-2.4664,-2.4715,-2.4764,-2.4829,-2.4861,-2.4938,-2.4981,-2.5041,-2.505,-2.4995,-2.5191,-2.5118,-2.5203,-2.5203,-2.5247,-2.5245,-2.5487,-2.5273,-2.5273,-2.5272,-2.5272,0,-2.443,-2.4532,-2.4547,-2.4618,-2.4732,-2.4731,-2.4845,-2.487,-2.4916,-2.4993,-2.4971,-2.5043,-2.5051,-2.5126,-2.5134,-2.5249,-2.5268,-2.528,-2.5281,-2.5283,-2.5281,-2.5312,-2.5302,-2.5279,-2.5278,-2.5276,-2.5275,0,-2.4605,-2.4618,-2.4742,-2.4793,-2.4808,-2.489,-2.4934,-2.5002,-2.5019,-2.5116,-2.5139,-2.5166,-2.5253,-2.5268,-2.5371,-2.5376,-2.5514,-2.5503,-2.5495,-2.5494,-2.558,-2.5572,-2.5852,-2.5889,-2.565,-2.5652,-2.5654,0,-2.4725,-2.4803,-2.4861,-2.491,-2.4942,-2.5021,-2.507,-2.5073,-2.5126,-2.5195,-2.5256,-2.5341,-2.5409,-2.555,-2.558,-2.5659,-2.565,-2.5743,-2.5662,-2.5661,-2.5653,-2.5649,-2.5657,-2.5759,-2.5762,-2.5764,-2.5765,0,-2.4937,-2.494,-2.5011,-2.5085,-2.5144,-2.5203,-2.5258,-2.53,-2.531,-2.537,-2.5458,-2.5511,-2.5616,-2.5701,-2.5779,-2.5811,-2.5791,-2.579,-2.5814,-2.5818,-2.581,-2.5816,-2.5539,-2.5784,-2.5782,-2.5781,-2.578,-2.5779,-2.509,-2.5157,-2.5209,-2.5289,-2.5331,-2.5383,-2.545,-2.5474,-2.5547,-2.5632,-2.5629,-2.5727,-2.5781,-2.5884,-2.5921,-2.5998,-2.5969,-2.6004,-2.6013,-2.6022,-2.603,-2.5796,-2.6012,-2.6012,-2.6011,-2.6011,-2.6011,0,-2.5302,-2.5333,-2.5407,-2.5484,-2.5548,-2.5521,-2.5581,-2.5636,-2.5721,-2.5773,-2.584,-2.5942,-2.6024,-2.606,-2.6141,-2.6196,-2.6189,-2.6217,-2.6214,-2.6222,-2.6051,-2.6023,-2.6222,-2.6222,-2.6222,-2.6221,-2.6221,-2.6221,-2.542,-2.5533,-2.5542,-2.5677,-2.5708,-2.5802,-2.5838,-2.5887,-2.5928,-2.6042,-2.611,-2.6132,-2.6178,-2.6262,-2.6337,-2.6345,-2.6377,-2.641,-2.6414,-2.6255,-2.6234,-2.6213,-2.6187,-2.6416,-2.6417,-2.6578,-2.658,-2.6581]},{"header":{"parameterUnit":"m.s-1","parameterCategory":1,"la1":30.2991,"la2":30.254,"lo1":-89.0895,"lo2":-89.0444,"dy":0.0017,"dx":0.0017,"nx":28,"ny":28,"refTime":"2025-12-04T09:00:00:Z","depth":0,"parameterNumber":3,"parameterNumberName":"V-component_of_WINDS"},"data":[0,0,0,0,0,0,0,0,0,0,0,0,0,0,0,0,0,0,0,0,0,0,0,0,0,0,0,0,0,0,0,0,0,0,0,0,0,0,0,0,0,0,0,0,0,0,0,0,0,0,0,0,0,0,0,0,0,0,-3.5411,-3.541,0,-3.5398,-3.5398,-3.5397,-3.5333,-3.5331,-3.533,-3.5328,-3.5314,-3.5315,-3.5316,0,0,0,0,0,0,0,0,0,0,0,0,0,-3.5377,-3.5378,-3.5411,-3.541,-3.541,-3.5398,-3.5398,-3.5397,-3.5333,-3.5331,-3.5329,-3.5328,-3.5314,-3.5315,-3.5317,0,0,0,0,0,0,0,0,0,0,0,0,0,-3.538,-3.5378,-3.5411,-3.5377,-3.5373,-3.5398,-3.5398,-3.5397,-3.5333,-3.5331,-3.5329,-3.5327,-3.5314,-3.5315,-3.5317,-3.5373,0,0,-3.5322,-3.5322,0,0,0,0,0,0,0,0,-3.538,-3.5382,-3.5382,-3.5379,-3.5375,-3.5364,-3.538,-3.5389,-3.5334,-3.5349,-3.5328,-3.5326,-3.5333,-3.5333,-3.5335,-3.5372,-3.5371,-3.5322,-3.5323,-3.5323,-3.5324,0,0,0,0,0,0,0,-3.538,-3.5382,-3.5405,-3.5382,-3.5378,-3.5361,-3.5359,-3.5382,-3.5354,-3.5347,-3.5342,-3.5342,-3.5331,-3.5334,-3.5335,-3.5371,-3.5322,-3.5323,-3.5324,-3.5325,-3.545,-3.5452,0,0,0,0,0,0,-3.5385,-3.5382,-3.5406,-3.5405,-3.5372,-3.5364,-3.5361,-3.537,-3.5353,-3.5349,-3.5344,-3.5339,-3.5332,-3.5333,-3.5334,-3.5396,-3.5323,-3.5325,-3.5326,-3.5447,-3.545,-3.5453,0,0,0,0,0,0,-3.5384,-3.5388,-3.5406,-3.5392,-3.5393,-3.5367,-3.5377,-3.5371,-3.5374,-3.5351,-3.5345,-3.5353,-3.5331,-3.5332,-3.5363,-3.5395,-3.5326,-3.5327,-3.5444,-3.5448,-3.5451,-3.5522,0,0,0,0,0,0,-3.5384,-3.5388,-3.541,-3.5393,-3.5394,-3.5437,-3.5379,-3.5373,-3.5377,-3.5371,-3.5357,-3.5353,-3.5329,-3.5361,-3.5364,-3.5396,-3.5328,-3.5441,-3.5446,-3.545,-3.5517,-3.5528,-3.5537,0,0,0,0,0,-3.5383,-3.5431,-3.5411,-3.5414,-3.5421,-3.5439,-3.5439,-3.5411,-3.538,-3.5401,-3.5386,-3.5353,-3.5391,-3.5365,-3.5368,-3.54,-3.5439,-3.5445,-3.545,-3.5512,-3.5526,-3.5537,0,0,0,0,0,0,-3.5452,-3.5428,-3.5406,-3.545,-3.5447,-3.5428,-3.5453,-3.5426,-3.5431,-3.5425,-3.5389,-3.5386,-3.5422,-3.5414,-3.5385,-3.5452,-3.5409,-3.5416,-3.5456,-3.5468,-3.5478,-3.5479,-3.533,0,0,0,0,0,-3.5472,-3.5489,-3.5467,-3.5508,-3.5507,-3.5481,-3.5487,-3.5465,-3.546,-3.5459,-3.5445,-3.5441,-3.5452,-3.546,-3.5468,-3.5515,-3.551,-3.5539,-3.5549,-3.5558,-3.5563,-3.5585,-3.5597,-3.547,-3.547,-3.547,0,0,-3.5514,-3.5503,-3.5516,-3.5521,-3.5516,-3.5533,-3.548,-3.5501,-3.5513,-3.5462,-3.549,-3.548,-3.5473,-3.5512,-3.5528,-3.5506,-3.5597,-3.5564,-3.5571,-3.5572,-3.5592,-3.5604,-3.5614,-3.5474,-3.5473,-3.5472,0,0,-3.56,-3.5594,-3.5626,-3.5622,-3.5614,-3.5596,-3.5604,-3.5588,-3.5579,-3.5607,-3.5568,-3.5582,-3.5601,-3.5597,-3.5597,-3.5678,-3.5648,-3.5682,-3.5735,-3.5756,-3.5766,-3.5775,-3.5802,-3.5812,-3.5688,-3.5688,-3.5688,0,-3.5653,-3.5678,-3.5646,-3.5669,-3.5671,-3.5625,-3.5657,-3.5654,-3.565,-3.5652,-3.5628,-3.5649,-3.5642,-3.5678,-3.5697,-3.57,-3.5706,-3.5683,-3.5768,-3.5776,-3.5783,-3.5809,-3.5819,-3.5692,-3.5692,-3.5691,-3.5691,0,-3.5743,-3.576,-3.5787,-3.5783,-3.5789,-3.5816,-3.5787,-3.5797,-3.5774,-3.5757,-3.5785,-3.5774,-3.5778,-3.5785,-3.5763,-3.5817,-3.5803,-3.5774,-3.573,-3.58,-3.5823,-3.5833,-3.5698,-3.5697,-3.5695,-3.5694,0,0,-3.5873,-3.5849,-3.586,-3.5856,-3.5844,-3.5856,-3.588,-3.5884,-3.5891,-3.589,-3.5908,-3.5924,-3.5896,-3.5896,-3.5874,-3.5893,-3.5955,-3.586,-3.586,-3.5877,-3.6011,-3.6033,-3.6044,-3.5935,-3.5937,-3.5938,-3.6011,0,-3.5953,-3.5993,-3.5964,-3.6008,-3.6023,-3.5978,-3.5999,-3.5992,-3.5978,-3.5987,-3.597,-3.5981,-3.5944,-3.5944,-3.5961,-3.5944,-3.5981,-3.5938,-3.595,-3.5951,-3.5952,-3.6057,-3.608,-3.6149,-3.602,-3.6022,-3.6023,0,-3.6052,-3.6054,-3.61,-3.6081,-3.6086,-3.6106,-3.6105,-3.6115,-3.6106,-3.6094,-3.6093,-3.6065,-3.6085,-3.6043,-3.607,-3.6041,-3.6044,-3.6036,-3.6038,-3.6037,-3.599,-3.6057,-3.6171,-3.6181,-3.6037,-3.6036,-3.6035,0,-3.614,-3.6154,-3.6182,-3.6181,-3.6161,-3.6175,-3.6167,-3.6156,-3.6159,-3.6159,-3.616,-3.6163,-3.6164,-3.6165,-3.6137,-3.6109,-3.6167,-3.6123,-3.6156,-3.6156,-3.6169,-3.6169,-3.6284,-3.6174,-3.6174,-3.6173,-3.6173,0,-3.6232,-3.6262,-3.6221,-3.6238,-3.6269,-3.6235,-3.6266,-3.6253,-3.6243,-3.6256,-3.6218,-3.6231,-3.6194,-3.6203,-3.6181,-3.6205,-3.6206,-3.6195,-3.6189,-3.6198,-3.6199,-3.6199,-3.6193,-3.6176,-3.6176,-3.6175,-3.6175,0,-3.6336,-3.631,-3.6338,-3.6316,-3.6311,-3.6334,-3.6315,-3.6329,-3.6311,-3.6328,-3.633,-3.6301,-3.6309,-3.6281,-3.6285,-3.627,-3.6305,-3.6291,-3.6308,-3.6303,-3.6337,-3.6334,-3.6455,-3.6468,-3.6351,-3.6352,-3.6353,0,-3.6396,-3.6417,-3.6397,-3.6403,-3.6397,-3.6407,-3.641,-3.6376,-3.638,-3.637,-3.6385,-3.639,-3.6392,-3.6406,-3.6385,-3.6387,-3.6372,-3.6414,-3.6372,-3.638,-3.637,-3.6369,-3.637,-3.6423,-3.6425,-3.6426,-3.6427,0,-3.6505,-3.649,-3.6496,-3.6496,-3.65,-3.6499,-3.6495,-3.6501,-3.6465,-3.6471,-3.6478,-3.648,-3.6482,-3.6487,-3.6484,-3.6474,-3.6444,-3.644,-3.6447,-3.6456,-3.6464,-3.6458,-3.633,-3.6437,-3.6436,-3.6435,-3.6435,-3.6434,-3.6587,-3.6603,-3.659,-3.6597,-3.659,-3.6586,-3.6598,-3.658,-3.6586,-3.6585,-3.6565,-3.6576,-3.6563,-3.6556,-3.655,-3.6557,-3.6537,-3.6548,-3.6551,-3.6554,-3.6559,-3.6464,-3.6556,-3.6556,-3.6556,-3.6555,-3.6555,0,-3.6693,-3.6682,-3.6688,-3.6683,-3.6687,-3.6658,-3.6651,-3.6657,-3.6667,-3.6658,-3.666,-3.6667,-3.667,-3.6649,-3.6649,-3.6658,-3.6644,-3.6659,-3.6658,-3.6655,-3.6577,-3.657,-3.6671,-3.6671,-3.6671,-3.6671,-3.667,-3.667,-3.6748,-3.6772,-3.6756,-3.6775,-3.6764,-3.6774,-3.6772,-3.6768,-3.676,-3.677,-3.6772,-3.6758,-3.6743,-3.6741,-3.6743,-3.6736,-3.6737,-3.6757,-3.6745,-3.6673,-3.6661,-3.6651,-3.6643,-3.6758,-3.6758,-3.6822,-3.6823,-3.6823]}]]